Location: Newark
(44.2003°N, 3.2583°E)
Time: 09:49:02
(UTC+00:00)

deb Explorer IX - All Passes

Search period start: 23 October 2019 00:00
Search period end: 02 November 2019 00:00
Orbit: 545 x 1106 km, 38.8° (Epoch: 22 October)

Date Brightness Start Highest point End Pass type
(mag) Time Alt. Az. Time Alt. Az. Time Alt. Az.
23 Oct - 10:21:38 10° SSE 10:23:18 12° SE 10:25:03 10° ESE daylight
23 Oct - 12:04:44 10° SW 12:09:11 34° SSE 12:14:21 10° E daylight
23 Oct - 13:50:34 10° WSW 13:55:46 51° S 14:01:53 10° ESE daylight
23 Oct - 15:37:08 10° W 15:42:36 40° SSW 15:48:49 10° SE daylight
23 Oct - 17:24:50 10° WSW 17:29:10 19° SSW 17:33:49 10° S visible
24 Oct - 09:59:56 10° SSE 10:01:26 11° SE 10:02:59 10° SE daylight
24 Oct - 11:42:59 10° SW 11:47:19 34° SSE 11:52:17 10° E daylight
24 Oct - 13:28:49 10° WSW 13:33:52 50° S 13:39:46 10° ESE daylight
24 Oct - 15:15:21 10° W 15:20:38 38° SSW 15:26:41 10° SE daylight
24 Oct - 17:03:05 10° WSW 17:07:11 18° SSW 17:11:35 10° S daylight
25 Oct - 09:38:15 10° SSE 09:39:34 11° SE 09:40:56 10° SE daylight
25 Oct - 11:21:16 10° SW 11:25:27 33° SSE 11:30:15 10° E daylight
25 Oct - 13:07:04 10° WSW 13:11:57 49° S 13:17:41 10° ESE daylight
25 Oct - 14:53:35 10° W 14:58:41 37° SSW 15:04:33 10° SE daylight
25 Oct - 16:41:22 10° WSW 16:45:12 17° SSW 16:49:20 10° S daylight
26 Oct - 09:16:32 10° SSE 09:17:42 11° SE 09:18:54 10° SE daylight
26 Oct - 10:59:31 10° SW 11:03:35 33° SSE 11:08:13 10° E daylight
26 Oct - 12:45:21 10° WSW 12:50:04 48° S 12:55:37 10° ESE daylight
26 Oct - 14:31:50 10° W 14:36:45 36° SSW 14:42:25 10° SE daylight
26 Oct - 16:19:40 10° WSW 16:23:14 16° SSW 16:27:04 10° S daylight
27 Oct - 08:54:49 10° SSE 08:55:51 11° SE 08:56:54 10° SE daylight
27 Oct - 10:37:47 10° SW 10:41:45 32° SSE 10:46:12 10° E daylight
27 Oct - 12:23:37 10° WSW 12:28:12 47° S 12:33:33 10° ESE daylight
27 Oct - 14:10:06 10° W 14:14:50 34° SSW 14:20:17 10° SE daylight
27 Oct - 15:58:01 10° WSW 16:01:17 15° SSW 16:04:46 10° S daylight
28 Oct - 08:33:04 10° SSE 08:34:00 11° SE 08:34:57 10° SE daylight
28 Oct - 10:16:03 10° SW 10:19:54 32° SSE 10:24:13 10° E daylight
28 Oct - 12:01:54 10° WSW 12:06:20 46° S 12:11:29 10° ESE daylight
28 Oct - 13:48:23 10° W 13:52:55 33° SSW 13:58:10 10° SE daylight
28 Oct - 15:36:25 10° WSW 15:39:20 14° SSW 15:42:27 10° S daylight
29 Oct - 08:11:16 10° SSE 08:12:10 11° SSE 08:13:05 10° SE daylight
29 Oct - 09:54:19 10° SW 09:58:05 31° SSE 10:02:15 10° E daylight
29 Oct - 11:40:10 10° WSW 11:44:29 45° S 11:49:27 10° ESE daylight
29 Oct - 13:26:40 10° W 13:31:02 31° SSW 13:36:03 10° SE daylight
29 Oct - 15:14:52 10° WSW 15:17:24 13° SSW 15:20:06 10° S daylight
30 Oct - 07:49:24 10° SSE 07:50:20 11° SSE 07:51:16 10° SE daylight
30 Oct - 09:32:33 10° SW 09:36:15 31° SSE 09:40:18 10° ESE daylight
30 Oct - 11:18:26 10° WSW 11:22:38 43° S 11:27:26 10° ESE daylight
30 Oct - 13:04:57 10° WSW 13:09:09 30° SSW 13:13:56 10° SE daylight
30 Oct - 14:53:23 10° SW 14:55:29 12° SSW 14:57:41 10° S daylight
31 Oct - 07:27:28 10° SSE 07:28:29 11° SSE 07:29:31 10° SE daylight
31 Oct - 09:10:48 10° SW 09:14:27 31° SSE 09:18:23 10° ESE daylight
31 Oct - 10:56:43 10° WSW 11:00:49 42° S 11:05:26 10° ESE daylight
31 Oct - 12:43:15 10° WSW 12:47:17 29° SSW 12:51:51 10° SE daylight
31 Oct - 14:32:02 10° SW 14:33:35 11° SSW 14:35:11 10° SSW daylight
01 Nov - 07:05:30 10° SSE 07:06:39 11° SSE 07:07:48 10° SE daylight
01 Nov - 08:49:01 10° SW 08:52:39 30° SSE 08:56:29 10° ESE daylight
01 Nov - 10:34:58 10° WSW 10:38:59 41° S 10:43:27 10° ESE daylight
01 Nov - 12:21:33 10° WSW 12:25:25 27° SSW 12:29:46 10° SE daylight
01 Nov - 14:11:03 10° SW 14:11:40 10° SSW 14:12:19 10° SSW daylight
